Portada
METAR-TAF:

METAR-TAF

Aeroports :

Santa Ana del Yacuma, Bolívia

latitud: 13-46S, longitud: 065-26W, altitud: 144 m

Observació

L'informe es va fer fa 4 hores i 59 minuts, a les 20:00 UTC
Vent 5 kt del Sud
Temperatura 24°C
Humitat 100%
Pressió 1008 hPa
Visibilitat: 8000 m
Núvols disperses a una alçada de 700 ft
Cel cobert a una alçada de 7000 ft
pluja

METAR: SLSA 052000Z 19005KT 8000 -RA SCT007 OVC070 24/24 Q1008

Hora: 20:59 (00:59 UTC)


TAF: manca

Observacions i pronòstics meteorològics de més de 4000 aeroports (METAR i TAF).

Les estacions disponibles són els punts grocs i vermells al mapa.

Posi el ratolí al punt desitjat per veure el nom de l'estació.

Feu clic per veure les observacions i els pronòstics meteorològics.

Per canviar el mapa: feu clic els botons verds amb una creu de color negre per apropar; al botó verd amb un guió per allunyar la imatge; o en les fletxes verdes per a mapes adjacents.


METAR-TAF: